INC77 TNCC-TQPF

Flight info

Callsign INC77
Flight time 1h 17m
Altitude 33000
Route SCAPA1K SCAPA DCT
Aircraft MD82/M-SDFGIRWY/C

Departure

Time 2026-04-20 00:13
Airport Hato International Airport (TNCC)

Arrival

Time 2026-04-20 01:31
Airport Clayton J. Lloyd International Airport (TQPF)
Time Latitude Longitude Altitude Speed Heading
2026-04-19 23:40 12.18509 -68.95790 37 ft 0 kts 165°
2026-04-20 00:02 12.18514 -68.95791 37 ft 2 kts 165°
2026-04-20 00:03 12.18531 -68.95794 37 ft 3 kts 176°
2026-04-20 00:03 12.18551 -68.95793 37 ft 3 kts 191°
2026-04-20 00:03 12.18570 -68.95787 37 ft 3 kts 204°
2026-04-20 00:03 12.18588 -68.95776 37 ft 3 kts 218°
2026-04-20 00:04 12.18598 -68.95767 37 ft 0 kts 226°
2026-04-20 00:05 12.18595 -68.95789 37 ft 9 kts 272°
2026-04-20 00:05 12.18632 -68.95837 37 ft 11 kts 326°
2026-04-20 00:05 12.18679 -68.95884 36 ft 10 kts 296°
2026-04-20 00:06 12.18703 -68.95966 37 ft 11 kts 284°
2026-04-20 00:06 12.18709 -68.95991 37 ft 9 kts 282°
2026-04-20 00:06 12.18720 -68.96039 37 ft 8 kts 282°
2026-04-20 00:06 12.18736 -68.96112 37 ft 11 kts 282°
2026-04-20 00:07 12.18748 -68.96171 37 ft 6 kts 282°
2026-04-20 00:07 12.18765 -68.96251 37 ft 16 kts 282°
2026-04-20 00:07 12.18794 -68.96368 37 ft 17 kts 289°
2026-04-20 00:07 12.18834 -68.96478 37 ft 15 kts 290°
2026-04-20 00:08 12.18868 -68.96570 37 ft 14 kts 290°
2026-04-20 00:08 12.18901 -68.96669 37 ft 16 kts 284°
2026-04-20 00:08 12.18927 -68.96781 37 ft 16 kts 282°
2026-04-20 00:08 12.18951 -68.96893 37 ft 16 kts 282°
2026-04-20 00:09 12.18973 -68.96988 37 ft 13 kts 283°
2026-04-20 00:09 12.18997 -68.97095 37 ft 18 kts 282°
2026-04-20 00:09 12.19025 -68.97230 37 ft 19 kts 282°
2026-04-20 00:09 12.19045 -68.97328 37 ft 14 kts 282°
2026-04-20 00:10 12.19065 -68.97407 37 ft 8 kts 299°
2026-04-20 00:10 12.19112 -68.97422 37 ft 3 kts 19°
2026-04-20 00:10 12.19113 -68.97421 37 ft 0 kts 20°
2026-04-20 00:12 12.19114 -68.97421 37 ft 1 kts 21°
2026-04-20 00:12 12.19169 -68.97384 37 ft 12 kts 52°
2026-04-20 00:12 12.19173 -68.97313 37 ft 7 kts 102°
2026-04-20 00:12 12.19160 -68.97253 37 ft 30 kts 102°
2026-04-20 00:13 12.19057 -68.96760 37 ft 111 kts 104°
2026-04-20 00:13 12.18837 -68.95737 62 ft 181 kts 99°
2026-04-20 00:13 12.18610 -68.94424 612 ft 194 kts 98°
2026-04-20 00:13 12.18377 -68.92981 927 ft 214 kts 98°
2026-04-20 00:14 12.18111 -68.91551 1296 ft 198 kts 101°
2026-04-20 00:14 12.17780 -68.90185 1924 ft 199 kts 102°
2026-04-20 00:14 12.17639 -68.88776 2531 ft 201 kts 84°
2026-04-20 00:14 12.18096 -68.87430 3171 ft 204 kts 61°
2026-04-20 00:15 12.19093 -68.86379 3800 ft 212 kts 38°
2026-04-20 00:15 12.20522 -68.85788 4456 ft 235 kts 16°
2026-04-20 00:15 12.21629 -68.85648 4901 ft 248 kts
2026-04-20 00:15 12.23393 -68.85587 5541 ft 257 kts
2026-04-20 00:16 12.25194 -68.85499 6169 ft 262 kts
2026-04-20 00:16 12.27018 -68.85298 6799 ft 265 kts 10°
2026-04-20 00:16 12.28847 -68.84974 7428 ft 268 kts 13°
2026-04-20 00:16 12.30683 -68.84543 8058 ft 272 kts 16°
2026-04-20 00:17 12.32518 -68.84030 8686 ft 275 kts 18°
2026-04-20 00:17 12.34332 -68.83464 9306 ft 278 kts 19°
2026-04-20 00:17 12.36179 -68.82846 9934 ft 281 kts 19°
2026-04-20 00:17 12.38033 -68.82196 10563 ft 283 kts 20°
2026-04-20 00:18 12.39936 -68.81509 11202 ft 298 kts 20°
2026-04-20 00:18 12.41944 -68.80771 11843 ft 314 kts 19°
2026-04-20 00:18 12.44052 -68.79989 12481 ft 330 kts 19°
2026-04-20 00:18 12.46263 -68.79165 13117 ft 345 kts 19°
2026-04-20 00:19 12.48563 -68.78303 13752 ft 358 kts 19°
2026-04-20 00:19 12.50917 -68.77419 14379 ft 370 kts 19°
2026-04-20 00:19 12.53371 -68.76496 15011 ft 381 kts 19°
2026-04-20 00:19 12.55885 -68.75549 15642 ft 389 kts 19°
2026-04-20 00:20 12.58444 -68.74584 16271 ft 395 kts 19°
2026-04-20 00:20 12.61041 -68.73603 16899 ft 400 kts 19°
2026-04-20 00:20 12.63663 -68.72612 17526 ft 404 kts 19°
2026-04-20 00:20 12.66315 -68.71611 18151 ft 408 kts 19°
2026-04-20 00:21 12.68992 -68.70600 18776 ft 411 kts 19°
2026-04-20 00:21 12.71685 -68.69583 19403 ft 414 kts 19°
2026-04-20 00:21 12.74391 -68.68560 20030 ft 415 kts 19°
2026-04-20 00:21 12.77109 -68.67533 20657 ft 416 kts 19°
2026-04-20 00:22 12.79825 -68.66505 21282 ft 416 kts 19°
2026-04-20 00:22 12.82554 -68.65473 21905 ft 416 kts 19°
2026-04-20 00:22 12.85268 -68.64446 22528 ft 416 kts 19°
2026-04-20 00:22 12.87945 -68.63432 23145 ft 414 kts 18°
2026-04-20 00:23 12.90644 -68.62409 23770 ft 413 kts 18°
2026-04-20 00:23 12.93329 -68.61391 24393 ft 411 kts 18°
2026-04-20 00:23 12.96004 -68.60377 25017 ft 408 kts 18°
2026-04-20 00:23 12.98662 -68.59369 25639 ft 406 kts 18°
2026-04-20 00:24 13.01306 -68.58366 26255 ft 404 kts 18°
2026-04-20 00:24 13.03932 -68.57369 26874 ft 402 kts 18°
2026-04-20 00:24 13.06549 -68.56376 27497 ft 399 kts 18°
2026-04-20 00:24 13.09146 -68.55390 28119 ft 396 kts 18°
2026-04-20 00:25 13.11717 -68.54413 28739 ft 393 kts 17°
2026-04-20 00:25 13.14265 -68.53445 29359 ft 389 kts 17°
2026-04-20 00:25 13.16789 -68.52486 29979 ft 385 kts 17°
2026-04-20 00:25 13.19294 -68.51534 30544 ft 382 kts 17°
2026-04-20 00:26 13.21788 -68.50587 31043 ft 382 kts 17°
2026-04-20 00:26 13.24261 -68.49650 31449 ft 385 kts 17°
2026-04-20 00:26 13.26787 -68.48693 31832 ft 388 kts 17°
2026-04-20 00:26 13.29336 -68.47727 32210 ft 391 kts 17°
2026-04-20 00:27 13.31903 -68.46754 32587 ft 394 kts 17°
2026-04-20 00:27 13.34490 -68.45774 32835 ft 400 kts 17°
2026-04-20 00:27 13.37140 -68.44771 32923 ft 411 kts 17°
2026-04-20 00:27 13.39857 -68.43743 32943 ft 422 kts 17°
2026-04-20 00:28 13.42652 -68.42685 32945 ft 432 kts 17°
2026-04-20 00:28 13.48429 -68.40495 32945 ft 451 kts 17°
2026-04-20 00:29 13.54414 -68.38221 32944 ft 464 kts 18°
2026-04-20 00:29 13.60493 -68.35906 32944 ft 473 kts 18°
2026-04-20 00:30 13.66708 -68.33536 32944 ft 479 kts 18°
2026-04-20 00:30 13.73010 -68.31130 32945 ft 484 kts 18°
2026-04-20 00:31 13.79346 -68.28709 32945 ft 487 kts 18°
2026-04-20 00:31 13.85707 -68.26276 32950 ft 488 kts 18°
2026-04-20 00:32 13.92054 -68.23848 32953 ft 488 kts 18°
2026-04-20 00:32 13.98413 -68.21414 32954 ft 488 kts 18°
2026-04-20 00:33 14.04779 -68.18976 32956 ft 488 kts 18°
2026-04-20 00:33 14.11143 -68.16538 32957 ft 488 kts 18°
2026-04-20 00:34 14.17502 -68.14101 32959 ft 487 kts 18°
2026-04-20 00:34 14.23864 -68.11663 32961 ft 487 kts 18°
2026-04-20 00:35 14.30211 -68.09228 32962 ft 487 kts 18°
2026-04-20 00:35 14.36553 -68.06794 32961 ft 486 kts 18°
2026-04-20 00:36 14.42856 -68.04374 32965 ft 486 kts 18°
2026-04-20 00:36 14.49195 -68.01939 32968 ft 485 kts 18°
2026-04-20 00:37 14.55521 -67.99507 32965 ft 484 kts 18°
2026-04-20 00:37 14.61840 -67.97076 32972 ft 485 kts 18°
2026-04-20 00:38 14.68170 -67.94639 32971 ft 485 kts 18°
2026-04-20 00:38 14.74465 -67.92215 32975 ft 485 kts 18°
2026-04-20 00:39 14.80802 -67.89774 32977 ft 485 kts 18°
2026-04-20 00:39 14.87131 -67.87334 32979 ft 485 kts 18°
2026-04-20 00:40 14.93447 -67.84897 32980 ft 484 kts 18°
2026-04-20 00:40 14.99751 -67.82462 32979 ft 483 kts 18°
2026-04-20 00:41 15.06054 -67.80027 32984 ft 482 kts 18°
2026-04-20 00:41 15.12332 -67.77600 32988 ft 481 kts 18°
2026-04-20 00:42 15.18606 -67.75172 32995 ft 480 kts 18°
2026-04-20 00:42 15.24819 -67.72767 32997 ft 479 kts 18°
2026-04-20 00:43 15.31050 -67.70354 33001 ft 478 kts 18°
2026-04-20 00:43 15.37286 -67.67937 33005 ft 476 kts 18°
2026-04-20 00:44 15.43492 -67.65530 33007 ft 475 kts 18°
2026-04-20 00:44 15.49688 -67.63125 33005 ft 474 kts 18°
2026-04-20 00:45 15.55827 -67.60741 33010 ft 473 kts 18°
2026-04-20 00:45 15.61989 -67.58346 33013 ft 472 kts 18°
2026-04-20 00:46 15.68148 -67.55951 33015 ft 472 kts 18°
2026-04-20 00:46 15.74293 -67.53559 33016 ft 471 kts 18°
2026-04-20 00:47 15.80418 -67.51135 33016 ft 472 kts 21°
2026-04-20 00:47 15.83271 -67.49429 33017 ft 476 kts 33°
2026-04-20 00:47 15.85752 -67.47131 33021 ft 480 kts 44°
2026-04-20 00:48 15.89739 -67.41527 33024 ft 485 kts 56°
2026-04-20 00:48 15.93062 -67.35475 33023 ft 487 kts 59°
2026-04-20 00:49 15.96207 -67.29237 33023 ft 488 kts 60°
2026-04-20 00:49 15.99329 -67.22970 33024 ft 488 kts 60°
2026-04-20 00:50 16.02486 -67.16706 33026 ft 489 kts 59°
2026-04-20 00:50 16.05689 -67.10464 33027 ft 489 kts 59°
2026-04-20 00:51 16.08937 -67.04241 33028 ft 489 kts 59°
2026-04-20 00:51 16.12192 -66.98083 33029 ft 489 kts 58°
2026-04-20 00:52 16.15499 -66.91883 33035 ft 490 kts 58°
2026-04-20 00:52 16.18832 -66.85674 33038 ft 492 kts 58°
2026-04-20 00:53 16.22182 -66.79462 33038 ft 493 kts 58°
2026-04-20 00:53 16.25554 -66.73225 33039 ft 494 kts 58°
2026-04-20 00:54 16.28939 -66.66973 33037 ft 496 kts 58°
2026-04-20 00:54 16.32334 -66.60710 33039 ft 497 kts 58°
2026-04-20 00:55 16.35740 -66.54427 33042 ft 498 kts 58°
2026-04-20 00:55 16.39137 -66.48160 33049 ft 499 kts 58°
2026-04-20 00:56 16.42559 -66.41845 33050 ft 500 kts 58°
2026-04-20 00:56 16.45964 -66.35557 33051 ft 501 kts 59°
2026-04-20 00:57 16.49393 -66.29220 33052 ft 502 kts 59°
2026-04-20 00:57 16.52818 -66.22888 33052 ft 502 kts 59°
2026-04-20 00:58 16.56244 -66.16546 33051 ft 502 kts 59°
2026-04-20 00:58 16.59659 -66.10220 33049 ft 503 kts 58°
2026-04-20 00:59 16.63092 -66.03856 33047 ft 503 kts 58°
2026-04-20 00:59 16.66516 -65.97502 33046 ft 503 kts 59°
2026-04-20 01:00 16.69948 -65.91131 33048 ft 505 kts 59°
2026-04-20 01:00 16.73397 -65.84723 33048 ft 507 kts 59°
2026-04-20 01:01 16.76265 -65.79388 33049 ft 507 kts 59°
2026-04-20 01:01 16.79721 -65.72953 33049 ft 508 kts 59°
2026-04-20 01:02 16.83158 -65.66548 33049 ft 508 kts 58°
2026-04-20 01:02 16.86618 -65.60092 33054 ft 508 kts 58°
2026-04-20 01:03 16.90050 -65.53683 33060 ft 508 kts 58°
2026-04-20 01:03 16.93498 -65.47240 33061 ft 508 kts 58°
2026-04-20 01:04 16.96943 -65.40794 33061 ft 508 kts 58°
2026-04-20 01:04 17.00394 -65.34335 33061 ft 509 kts 58°
2026-04-20 01:05 17.03851 -65.27857 33061 ft 509 kts 58°
2026-04-20 01:05 17.07281 -65.21423 33061 ft 509 kts 58°
2026-04-20 01:06 17.10732 -65.14942 33061 ft 510 kts 58°
2026-04-20 01:06 17.14184 -65.08455 33061 ft 510 kts 58°
2026-04-20 01:07 17.17636 -65.01962 33060 ft 511 kts 58°
2026-04-20 01:07 17.21091 -64.95455 33055 ft 512 kts 59°
2026-04-20 01:07 17.22826 -64.92188 32671 ft 517 kts 59°
2026-04-20 01:08 17.24570 -64.88900 32200 ft 515 kts 58°
2026-04-20 01:08 17.26276 -64.85677 31750 ft 508 kts 58°
2026-04-20 01:08 17.27976 -64.82463 31298 ft 501 kts 58°
2026-04-20 01:08 17.29657 -64.79281 30846 ft 496 kts 58°
2026-04-20 01:09 17.31315 -64.76141 30394 ft 490 kts 58°
2026-04-20 01:09 17.32957 -64.73028 29943 ft 486 kts 58°
2026-04-20 01:09 17.34581 -64.69951 29492 ft 481 kts 58°
2026-04-20 01:09 17.36193 -64.66895 29041 ft 477 kts 58°
2026-04-20 01:10 17.37792 -64.63865 28590 ft 472 kts 58°
2026-04-20 01:10 17.40921 -64.57934 27693 ft 463 kts 58°
2026-04-20 01:10 17.42473 -64.54990 27236 ft 459 kts 58°
2026-04-20 01:11 17.44012 -64.52071 26783 ft 454 kts 58°
2026-04-20 01:11 17.45528 -64.49194 26332 ft 449 kts 58°
2026-04-20 01:11 17.47030 -64.46343 25881 ft 445 kts 58°
2026-04-20 01:11 17.48515 -64.43522 25431 ft 440 kts 58°
2026-04-20 01:12 17.49984 -64.40731 24980 ft 435 kts 58°
2026-04-20 01:12 17.51436 -64.37972 24529 ft 430 kts 58°
2026-04-20 01:12 17.52873 -64.35239 24072 ft 425 kts 58°
2026-04-20 01:12 17.54291 -64.32543 23617 ft 420 kts 58°
2026-04-20 01:13 17.55695 -64.29873 23165 ft 416 kts 58°
2026-04-20 01:13 17.57082 -64.27234 22714 ft 411 kts 58°
2026-04-20 01:13 17.58440 -64.24649 22268 ft 407 kts 58°
2026-04-20 01:13 17.59803 -64.22053 21816 ft 404 kts 58°
2026-04-20 01:14 17.61151 -64.19487 21365 ft 400 kts 58°
2026-04-20 01:14 17.62485 -64.16945 20914 ft 397 kts 58°
2026-04-20 01:14 17.63811 -64.14417 20461 ft 393 kts 58°
2026-04-20 01:14 17.65126 -64.11910 20005 ft 390 kts 58°
2026-04-20 01:15 17.66429 -64.09425 19553 ft 387 kts 58°
2026-04-20 01:15 17.67720 -64.06960 19102 ft 384 kts 59°
2026-04-20 01:15 17.69001 -64.04513 18650 ft 381 kts 59°
2026-04-20 01:15 17.70254 -64.02119 18200 ft 378 kts 59°
2026-04-20 01:16 17.71515 -63.99709 17745 ft 375 kts 59°
2026-04-20 01:16 17.72764 -63.97322 17293 ft 372 kts 59°
2026-04-20 01:16 17.74004 -63.94951 16842 ft 369 kts 59°
2026-04-20 01:16 17.75232 -63.92601 16392 ft 366 kts 59°
2026-04-20 01:17 17.76452 -63.90266 15937 ft 363 kts 59°
2026-04-20 01:17 17.77657 -63.87958 15487 ft 359 kts 59°
2026-04-20 01:17 17.78847 -63.85678 15033 ft 351 kts 59°
2026-04-20 01:17 17.80005 -63.83456 14581 ft 343 kts 59°
2026-04-20 01:18 17.81139 -63.81279 14130 ft 337 kts 59°
2026-04-20 01:18 17.82254 -63.79140 13678 ft 331 kts 59°
2026-04-20 01:18 17.83349 -63.77038 13226 ft 326 kts 59°
2026-04-20 01:18 17.84427 -63.74969 12776 ft 321 kts 59°
2026-04-20 01:19 17.85489 -63.72930 12324 ft 316 kts 59°
2026-04-20 01:19 17.86541 -63.70911 11872 ft 312 kts 59°
2026-04-20 01:19 17.87579 -63.68920 11421 ft 309 kts 60°
2026-04-20 01:19 17.88605 -63.66951 10970 ft 305 kts 60°
2026-04-20 01:20 17.89619 -63.65005 10519 ft 302 kts 60°
2026-04-20 01:20 17.90607 -63.63111 10075 ft 299 kts 61°
2026-04-20 01:20 17.91600 -63.61203 9624 ft 296 kts 61°
2026-04-20 01:20 17.92581 -63.59320 9175 ft 293 kts 62°
2026-04-20 01:21 17.93555 -63.57448 8722 ft 290 kts 62°
2026-04-20 01:21 17.94515 -63.55599 8272 ft 287 kts 62°
2026-04-20 01:21 17.95467 -63.53764 7821 ft 285 kts 62°
2026-04-20 01:21 17.96409 -63.51949 7371 ft 282 kts 62°
2026-04-20 01:22 17.97344 -63.50145 6921 ft 280 kts 63°
2026-04-20 01:22 17.98272 -63.48357 6470 ft 278 kts 63°
2026-04-20 01:22 17.99193 -63.46580 6020 ft 276 kts 63°
2026-04-20 01:22 18.00212 -63.44875 5568 ft 274 kts 56°
2026-04-20 01:23 18.01385 -63.43299 5119 ft 273 kts 53°
2026-04-20 01:23 18.02594 -63.41795 4674 ft 272 kts 51°
2026-04-20 01:23 18.03832 -63.40298 4224 ft 270 kts 51°
2026-04-20 01:23 18.05072 -63.38818 3773 ft 269 kts 51°
2026-04-20 01:24 18.06312 -63.37348 3321 ft 267 kts 51°
2026-04-20 01:24 18.07543 -63.35894 2872 ft 266 kts 51°
2026-04-20 01:24 18.08738 -63.34489 2393 ft 245 kts 51°
2026-04-20 01:24 18.09823 -63.33219 1961 ft 223 kts 50°
2026-04-20 01:25 18.10801 -63.32077 1914 ft 199 kts 51°
2026-04-20 01:25 18.11695 -63.31027 1806 ft 185 kts 52°
2026-04-20 01:25 18.12464 -63.30005 1786 ft 172 kts 55°
2026-04-20 01:25 18.13171 -63.29024 1823 ft 167 kts 56°
2026-04-20 01:26 18.13879 -63.28037 1806 ft 170 kts 56°
2026-04-20 01:26 18.14591 -63.27041 1802 ft 171 kts 56°
2026-04-20 01:26 18.15299 -63.26051 1801 ft 172 kts 56°
2026-04-20 01:26 18.16018 -63.25047 1800 ft 172 kts 56°
2026-04-20 01:27 18.16736 -63.24032 1799 ft 172 kts 56°
2026-04-20 01:27 18.17429 -63.23005 1799 ft 172 kts 57°
2026-04-20 01:27 18.18095 -63.21954 1799 ft 172 kts 59°
2026-04-20 01:27 18.18726 -63.20883 1801 ft 172 kts 61°
2026-04-20 01:28 18.19308 -63.19809 1818 ft 171 kts 63°
2026-04-20 01:28 18.19834 -63.18683 1808 ft 171 kts 68°
2026-04-20 01:28 18.20194 -63.17511 1822 ft 166 kts 76°
2026-04-20 01:28 18.20402 -63.16306 1688 ft 169 kts 82°
2026-04-20 01:29 18.20496 -63.15128 1570 ft 152 kts 86°
2026-04-20 01:29 18.20529 -63.14037 1469 ft 147 kts 88°
2026-04-20 01:29 18.20537 -63.12970 1255 ft 145 kts 89°
2026-04-20 01:29 18.20536 -63.11907 952 ft 144 kts 90°
2026-04-20 01:30 18.20532 -63.10906 877 ft 133 kts 90°
2026-04-20 01:30 18.20538 -63.09920 745 ft 142 kts 89°
2026-04-20 01:30 18.20546 -63.08863 666 ft 142 kts 90°
2026-04-20 01:30 18.20548 -63.07864 490 ft 139 kts 89°
2026-04-20 01:31 18.20535 -63.06847 318 ft 137 kts 91°
2026-04-20 01:31 18.20503 -63.05872 120 ft 127 kts 91°
2026-04-20 01:31 18.20476 -63.05156 112 ft 49 kts 92°
2026-04-20 01:31 18.20470 -63.04985 112 ft 9 kts 93°
2026-04-20 01:32 18.20468 -63.04954 112 ft 1 kts 94°
2026-04-20 01:32 18.20459 -63.04894 112 ft 9 kts 104°
2026-04-20 01:32 18.20468 -63.04873 112 ft 3 kts 35°
2026-04-20 01:32 18.20472 -63.04871 112 ft 0 kts 24°
2026-04-20 01:33 18.20499 -63.04898 111 ft 8 kts 254°
2026-04-20 01:33 18.20473 -63.04996 112 ft 20 kts 268°
2026-04-20 01:33 18.20475 -63.05147 112 ft 22 kts 272°
2026-04-20 01:33 18.20483 -63.05339 112 ft 28 kts 272°
2026-04-20 01:34 18.20517 -63.05429 112 ft 6 kts 353°
2026-04-20 01:34 18.20564 -63.05389 112 ft 3 kts 45°
2026-04-20 01:34 18.20586 -63.05384 112 ft 0 kts